| time (UTC) | temp C | wind direction | speed KPH | gust KPH | rain 1hr cm | rain 24hr cm | rain mn cm | humidity % | barometer mb |
| 20260504011517 | 17 | 291 | 3.2 | 6.4 | 0.00 | 0.03 | 0.03 | 37 | 1004.9 |
| 20260504010600 | 18 | 289 | 3.2 | 4.8 | 0.00 | 0.03 | 0.03 | 36 | 1004.9 |
| 20260504005520 | 18 | 300 | 4.8 | 8.0 | 0.00 | 0.03 | 0.03 | 35 | 1004.8 |
| 20260504004520 | 19 | 296 | 6.4 | 14.5 | 0.00 | 0.03 | 0.03 | 34 | 1004.8 |
| 20260504003533 | 19 | 293 | 6.4 | 12.9 | 0.00 | 0.03 | 0.03 | 33 | 1004.8 |
| 20260504002541 | 20 | 283 | 9.7 | 16.1 | 0.00 | 0.03 | 0.03 | 32 | 1004.9 |
| 20260504001518 | 20 | 298 | 9.7 | 16.1 | 0.00 | 0.03 | 0.03 | 31 | 1004.9 |
| 20260504000521 | 20 | 317 | 9.7 | 19.3 | 0.00 | 0.03 | 0.03 | 30 | 1004.9 |
| 20260503235519 | 20 | 313 | 9.7 | 14.5 | 0.00 | 0.03 | 0.03 | 33 | 1004.8 |
| 20260503234519 | 20 | 280 | 8.0 | 14.5 | 0.00 | 0.03 | 0.03 | 33 | 1004.7 |
| 20260503233549 | 20 | 301 | 9.7 | 16.1 | 0.00 | 0.03 | 0.03 | 35 | 1004.6 |
| 20260503232519 | 20 | 281 | 9.7 | 17.7 | 0.00 | 0.03 | 0.03 | 36 | 1004.7 |
| 20260503231519 | 21 | 292 | 11.3 | 19.3 | 0.00 | 0.03 | 0.03 | 34 | 1004.6 |
| 20260503230519 | 21 | 290 | 9.7 | 14.5 | 0.00 | 0.03 | 0.03 | 34 | 1004.6 |
| 20260503225519 | 21 | 304 | 9.7 | 17.7 | 0.00 | 0.03 | 0.03 | 33 | 1004.4 |
| 20260503224532 | 21 | 323 | 8.0 | 16.1 | 0.00 | 0.03 | 0.03 | 32 | 1004.5 |
| 20260503223520 | 21 | 304 | 9.7 | 19.3 | 0.00 | 0.03 | 0.03 | 33 | 1004.5 |
| 20260503222532 | 21 | 280 | 9.7 | 14.5 | 0.00 | 0.03 | 0.03 | 34 | 1004.4 |
| 20260503221520 | -17 | 294 | 8.0 | 12.9 | 0.00 | 0.03 | 0.03 | ||
| 20260503220521 | 20 | 318 | 11.3 | 20.9 | 0.00 | 0.03 | 0.03 | 33 | 1004.5 |
| 20260503215541 | 21 | 319 | 11.3 | 17.7 | 0.00 | 0.03 | 0.03 | 32 | 1004.5 |
| 20260503214543 | -17 | 297 | 11.3 | 19.3 | 0.00 | 0.03 | 0.03 | ||
| 20260503213533 | 21 | 282 | 12.9 | 25.7 | 0.00 | 0.03 | 0.03 | 33 | 1004.7 |
| 20260503212541 | 21 | 330 | 9.7 | 16.1 | 0.00 | 0.03 | 0.03 | 35 | 1004.6 |
| 20260503211519 | 21 | 315 | 8.0 | 14.5 | 0.00 | 0.03 | 0.03 | 36 | 1004.5 |
| 20260503210519 | 21 | 321 | 11.3 | 19.3 | 0.00 | 0.03 | 0.03 | 35 | 1004.6 |
| 20260503205518 | 21 | 280 | 9.7 | 20.9 | 0.00 | 0.03 | 0.03 | 36 | 1004.6 |
| 20260503204518 | 21 | 303 | 12.9 | 19.3 | 0.00 | 0.03 | 0.03 | 36 | 1004.7 |
| 20260503203542 | 20 | 282 | 12.9 | 20.9 | 0.00 | 0.03 | 0.03 | 35 | 1004.7 |
| 20260503202519 | 21 | 322 | 9.7 | 17.7 | 0.00 | 0.03 | 0.03 | 38 | 1004.8 |
| 20260503201525 | 21 | 303 | 11.3 | 17.7 | 0.00 | 0.03 | 0.03 | 38 | 1005.0 |
| 20260503200523 | 20 | 280 | 11.3 | 19.3 | 0.00 | 0.03 | 0.03 | 41 | 1004.9 |
| 20260503195558 | 20 | 296 | 12.9 | 19.3 | 0.00 | 0.03 | 0.03 | 40 | 1004.9 |
| 20260503194520 | 20 | 303 | 9.7 | 16.1 | 0.00 | 0.03 | 0.03 | 41 | 1005.0 |
| 20260503193518 | 20 | 314 | 9.7 | 22.5 | 0.00 | 0.03 | 0.03 | 43 | 1005.0 |
| 20260503192520 | 20 | 310 | 11.3 | 19.3 | 0.00 | 0.03 | 0.03 | 43 | 1005.0 |
| 20260503191540 | 20 | 289 | 11.3 | 19.3 | 0.00 | 0.03 | 0.03 | 42 | 1005.1 |
| 20260503190520 | 20 | 333 | 9.7 | 17.7 | 0.00 | 0.03 | 0.03 | 42 | 1005.1 |
| 20260503185537 | 20 | 325 | 6.4 | 14.5 | 0.00 | 0.03 | 0.03 | 44 | 1005.2 |
| 20260503184538 | 19 | 304 | 11.3 | 17.7 | 0.00 | 0.03 | 0.03 | 44 | 1005.3 |
| 20260503183521 | 19 | 283 | 9.7 | 20.9 | 0.00 | 0.03 | 0.03 | 45 | 1005.3 |
| 20260503182522 | 18 | 285 | 9.7 | 19.3 | 0.00 | 0.03 | 0.03 | 46 | 1005.5 |
| 20260503181525 | 18 | 283 | 9.7 | 17.7 | 0.00 | 0.03 | 0.03 | 47 | 1005.6 |
| 20260503180533 | 18 | 252 | 9.7 | 14.5 | 0.00 | 0.03 | 0.03 | 47 | 1005.7 |
| 20260503175539 | 18 | 229 | 8.0 | 17.7 | 0.00 | 0.03 | 0.03 | 47 | 1005.7 |
| 20260503174522 | 18 | 244 | 9.7 | 20.9 | 0.00 | 0.03 | 0.03 | 48 | 1005.7 |
| 20260503173519 | 17 | 239 | 4.8 | 11.3 | 0.00 | 0.03 | 0.03 | 49 | 1005.7 |
| 20260503172519 | 17 | 216 | 8.0 | 17.7 | 0.00 | 0.03 | 0.03 | 49 | 1005.7 |
| 20260503171520 | 17 | 212 | 11.3 | 16.1 | 0.00 | 0.03 | 0.03 | 49 | 1005.9 |
| 20260503170540 | 16 | 248 | 8.0 | 16.1 | 0.00 | 0.03 | 0.03 | 50 | 1006.1 |
| 20260503150519 | 13 | 231 | 14.5 | 22.5 | 0.00 | 0.03 | 0.03 | 54 | 1006.6 |
| 20260503130541 | 12 | 199 | 14.5 | 24.1 | 0.00 | 0.03 | 0.03 | 56 | 1007.4 |
| 20260503110522 | 11 | 191 | 9.7 | 16.1 | 0.03 | 0.03 | 0.03 | 67 | 1008.1 |
| 20260503081557 | -17 | 198 | 8.0 | 11.3 | 0.00 | 0.00 | 0.00 | ||
| 20260503080519 | 10 | 216 | 9.7 | 14.5 | 0.00 | 0.00 | 0.00 | 56 | 1010.2 |
| 20260503072524 | 10 | 208 | 12.9 | 17.7 | 0.00 | 0.00 | 0.00 | 52 | 1010.4 |
| 20260503071519 | 10 | 212 | 12.9 | 19.3 | 0.00 | 0.00 | 0.00 | 53 | 1010.6 |
| 20260503070541 | 10 | 211 | 9.7 | 19.3 | 0.00 | 0.00 | 0.00 | 53 | 1010.7 |
| 20260503054520 | 10 | 207 | 8.0 | 14.5 | 0.00 | 0.00 | 0.00 | 56 | 1011.2 |
| 20260503053520 | 9 | 211 | 6.4 | 14.5 | 0.00 | 0.00 | 0.00 | 56 | 1011.4 |
| 20260503052520 | 9 | 204 | 6.4 | 12.9 | 0.00 | 0.00 | 0.00 | 56 | 1011.6 |
| 20260503051520 | 8 | 212 | 4.8 | 9.7 | 0.00 | 0.00 | 0.00 | 58 | 1011.7 |
| 20260503050540 | 8 | 210 | 4.8 | 9.7 | 0.00 | 0.00 | 0.00 | 59 | 1011.7 |
| 20260503045518 | 9 | 201 | 4.8 | 8.0 | 0.00 | 0.00 | 0.00 | 57 | 1011.7 |
| 20260503044520 | 9 | 201 | 4.8 | 9.7 | 0.00 | 0.00 | 0.00 | 58 | 1011.8 |
| 20260503043527 | 9 | 199 | 4.8 | 9.7 | 0.00 | 0.00 | 0.00 | 57 | 1011.8 |
| 20260503042522 | 10 | 195 | 4.8 | 8.0 | 0.00 | 0.00 | 0.00 | 56 | 1011.9 |
| 20260503041538 | 10 | 199 | 4.8 | 11.3 | 0.00 | 0.00 | 0.00 | 56 | 1012.0 |
| 20260503040519 | 10 | 201 | 4.8 | 8.0 | 0.00 | 0.00 | 0.00 | 56 | 1012.1 |
| 20260503035524 | 10 | 199 | 4.8 | 12.9 | 0.00 | 0.00 | 0.00 | 56 | 1012.2 |
| 20260503034539 | 10 | 208 | 4.8 | 9.7 | 0.00 | 0.00 | 0.00 | 55 | 1012.4 |
| 20260503033519 | 10 | 194 | 4.8 | 8.0 | 0.00 | 0.00 | 0.00 | 53 | 1012.6 |
| 20260503032539 | 10 | 199 | 4.8 | 8.0 | 0.00 | 0.00 | 0.00 | 53 | 1012.6 |
| 20260503031525 | 11 | 209 | 4.8 | 8.0 | 0.00 | 0.00 | 0.00 | 53 | 1012.7 |
| 20260503030541 | 11 | 200 | 3.2 | 6.4 | 0.00 | 0.00 | 0.00 | 52 | 1012.9 |
| 20260503025522 | 11 | 204 | 3.2 | 6.4 | 0.00 | 0.00 | 0.00 | 50 | 1012.9 |
| 20260503024603 | 11 | 209 | 3.2 | 6.4 | 0.00 | 0.00 | 0.00 | 50 | 1013.0 |
| 20260503023538 | 11 | 213 | 3.2 | 4.8 | 0.00 | 0.00 | 0.00 | 50 | 1013.0 |
| 20260503022527 | -17 | 212 | 4.8 | 8.0 | 0.00 | 0.00 | 0.00 | ||
| 20260503021529 | 12 | 207 | 4.8 | 8.0 | 0.00 | 0.00 | 0.00 | 49 | 1013.0 |
| 20260503020520 | 12 | 214 | 4.8 | 6.4 | 0.00 | 0.00 | 0.00 | 47 | 1013.0 |
| 20260503015520 | 12 | 222 | 3.2 | 4.8 | 0.00 | 0.00 | 0.00 | 47 | 1013.0 |
| 20260503014521 | 12 | 226 | 4.8 | 6.4 | 0.00 | 0.00 | 0.00 | 47 | 1013.0 |
| 20260503013527 | 12 | 233 | 4.8 | 8.0 | 0.00 | 0.00 | 0.00 | 45 | 1012.9 |
| 20260503012518 | 13 | 224 | 4.8 | 8.0 | 0.00 | 0.00 | 0.00 | 45 | 1012.9 |